Starlink 5657

operational
NORAD ID: 55342 Int'l Des: 2023-013 Owner: SPXS Country: US Constellation: starlink
LEOCIRCULAR

Über Starlink 5657

Beschreibung wird geladen...

Live-Position

3D-Globus wird geladen...

Nächste Überflüge

Höhenverlauf

Altitude vs Time

uPlot chart will show altitude changes over time

Zweizeiliger Elementsatz

1 55342U 23013M 25350.10008502 .00001006 00000-0 89530-4 0 9995
2 55342 43.0056 34.6819 0001260 271.2801 88.7897 15.02538547159136
Epoch: 16. Dez. 2025 • Age: 25 hours

Aktueller Status

Höhe 567.0 km
Geschwindigkeit 7.58 km/s
Subsatellitenpunkt -31.55°S, 153.61°W
Startdatum 26. Jan. 2023
Alter 2.8 years
Typ internet

Technische Details

Klassifizierung Payload
Masse 305.00 kg
Trockenmasse 290.00 kg
Gesamtmasse 305.00 kg
Länge 0.20 m
Durchmesser 2.80 m
Spannweite 9.00 m
Form Box + pan
Hersteller SPXS
Bus-Typ Starlink
Phasenstatus In Orbit
Besitzer/Staat SPXS/US

Große Konstellationen

Loading constellations...